EW5684 Weather Reports


Display with metric or nautical units.
time (UTC)temp
F
wind
direction
speed
MPH
gust
MPH
rain 1hr
in
rain 24hr
in
rain mn
in
humidity
%
barometer
mb
20260905123235 92 196 4.0 7.0 0.00 0.00 0.00 32 1018.4
20260905122735 91 111 4.0 5.0 0.00 0.00 0.00 32 1018.3
20260905122234 92 188 2.0 6.0 0.00 0.00 0.00 31 1018.3
20260905121956 93 154 4.0 6.0 0.00 0.00 0.00 32 1018.4
20260905121455 91 168 1.0 5.0 0.00 0.00 0.00 31 1018.4
20260905120954 91 186 2.0 5.0 0.00 0.00 0.00 32 1018.6
20260905120234 91 158 3.0 5.0 0.00 0.00 0.00 33 1018.5
20260905115739 90 192 4.0 9.0 0.00 0.00 0.00 35 1018.5
20260905115734 90 258 2.0 9.0 0.00 0.00 0.00 33 1018.5
20260905114734 90 202 5.0 6.0 0.00 0.00 0.00 35 1018.6
20260905114234 89 178 2.0 6.0 0.00 0.00 0.00 35 1018.5
20260905113733 89 169 4.0 6.0 0.00 0.00 0.00 34 1018.7
20260905113502 88 188 1.0 9.0 0.00 0.00 0.00 35 1018.7
20260905112733 89 179 7.0 9.0 0.00 0.00 0.00 35 1018.7
20260905112233 89 216 2.0 11.0 0.00 0.00 0.00 37 1018.8
20260905111733 88 162 1.0 11.0 0.00 0.00 0.00 37 1018.8
20260905111453 88 200 6.0 9.0 0.00 0.00 0.00 35 1018.8
20260905110732 88 165 2.0 6.0 0.00 0.00 0.00 35 1018.9
20260905110233 88 189 1.0 6.0 0.00 0.00 0.00 35 1018.9
20260905105953 89 145 1.0 5.0 0.00 0.00 0.00 36 1018.9
20260905105232 87 120 3.0 7.0 0.00 0.00 0.00 37 1018.9
20260905104743 87 183 6.0 7.0 0.00 0.00 0.00 37 1019.0
20260905104232 87 248 2.0 6.0 0.00 0.00 0.00 37 1019.0
20260905103732 88 175 4.0 11.0 0.00 0.00 0.00 35 1019.0
20260905103232 89 178 2.0 11.0 0.00 0.00 0.00 35 1019.1
20260905102732 88 145 1.0 7.0 0.00 0.00 0.00 36 1019.1
20260905102231 88 149 2.0 6.0 0.00 0.00 0.00 36 1019.2
20260905101731 87 138 2.0 6.0 0.00 0.00 0.00 37 1019.2
20260905101231 86 161 3.0 6.0 0.00 0.00 0.00 38 1019.4
20260905100954 86 193 3.0 6.0 0.00 0.00 0.00 39 1019.2
20260905100231 86 199 4.0 6.0 0.00 0.00 0.00 39 1019.2
20260905095730 86 175 2.0 6.0 0.00 0.00 0.00 41 1019.2
20260905095230 85 220 3.0 6.0 0.00 0.00 0.00 39 1019.2
20260905094949 86 199 3.0 6.0 0.00 0.00 0.00 37 1019.4
20260905094230 85 180 0.0 6.0 0.00 0.00 0.00 38 1019.4
20260905094002 85 147 3.0 6.0 0.00 0.00 0.00 38 1019.4
20260905093230 85 124 4.0 6.0 0.00 0.00 0.00 38 1019.5
20260905092958 86 195 4.0 6.0 0.00 0.00 0.00 38 1019.4
20260905092231 86 189 2.0 5.0 0.00 0.00 0.00 37 1019.4
20260905091730 85 111 3.0 5.0 0.00 0.00 0.00 40 1019.4
20260905091229 83 210 1.0 6.0 0.00 0.00 0.00 41 1019.4
20260905090730 83 210 4.0 6.0 0.00 0.00 0.00 41 1019.2
20260905090230 84 166 2.0 5.0 0.00 0.00 0.00 41 1019.5
20260905085729 85 171 1.0 4.0 0.00 0.00 0.00 40 1019.4
20260905085451 84 102 3.0 4.0 0.00 0.00 0.00 43 1019.4
20260905084740 83 161 2.0 4.0 0.00 0.00 0.00 45 1019.4
20260905084229 82 159 1.0 4.0 0.00 0.00 0.00 46 1019.4
20260905083729 82 157 1.0 4.0 0.00 0.00 0.00 47 1019.2
20260905083449 81 206 1.0 4.0 0.00 0.00 0.00 48 1019.4
20260905082728 80 204 1.0 4.0 0.00 0.00 0.00 49 1019.4
20260905082228 80 213 1.0 4.0 0.00 0.00 0.00 48 1019.4
20260905081947 80 226 3.0 4.0 0.00 0.00 0.00 49 1019.1
20260905081228 80 173 2.0 4.0 0.00 0.00 0.00 49 1019.2
20260905080729 79 183 1.0 4.0 0.00 0.00 0.00 50 1019.2
20260905080229 79 203 2.0 4.0 0.00 0.00 0.00 50 1019.1
20260905075729 79 203 1.0 3.0 0.00 0.00 0.00 50 1019.1
20260905075228 78 197 1.0 4.0 0.00 0.00 0.00 50 1019.0
20260905074950 78 220 2.0 4.0 0.00 0.00 0.00 51 1019.0
20260905074228 77 214 1.0 3.0 0.00 0.00 0.00 52 1019.0
20260905073727 76 209 1.0 4.0 0.00 0.00 0.00 53 1019.1
20260905073228 76 207 3.0 4.0 0.00 0.00 0.00 53 1019.0
20260905072728 76 190 3.0 5.0 0.00 0.00 0.00 52 1019.0
20260905072227 77 202 4.0 5.0 0.00 0.00 0.00 51 1019.0
20260905071728 77 123 1.0 4.0 0.00 0.00 0.00 51 1019.0
20260905071226 77 123 2.0 4.0 0.00 0.00 0.00 51 1019.0
20260905070726 76 114 2.0 3.0 0.00 0.00 0.00 51 1019.0
20260905070227 76 110 1.0 3.0 0.00 0.00 0.00 51 1019.0
20260905065727 75 106 1.0 3.0 0.00 0.00 0.00 52 1019.1
20260905065227 74 104 1.0 3.0 0.00 0.00 0.00 52 1019.1
20260905064727 74 0 2.0 3.0 0.00 0.00 0.00 53 1019.1
20260905064227 73 106 0.0 3.0 0.00 0.00 0.00 54 1019.0
20260905063838 69 0 0.0 0.0 0.00 0.00 0.00 58 1018.5
20260905063827 71 0 3.0 3.0 0.00 0.00 0.00 57 1018.8
20260905063821 71 0 1.0 3.0 0.00 0.00 0.00 57 1018.9
20260905063816 71 0 2.0 3.0 0.00 0.00 0.00 56 1019.0
20260905063810 72 0 1.0 3.0 0.00 0.00 0.00 56 1019.0
20260905063806 72 0 2.0 3.0 0.00 0.00 0.00 55 1019.0
20260905063800 72 0 0.0 2.0 0.00 0.00 0.00 55 1019.0
20260905063755 73 0 2.0 3.0 0.00 0.00 0.00 55 1019.1
20260905063309 70 0 1.0 2.0 0.00 0.00 0.00 58 1018.9
20260905063253 70 0 1.0 3.0 0.00 0.00 0.00 58 1018.9
20260905063247 70 0 2.0 3.0 0.00 0.00 0.00 58 1018.8
20260905063238 69 0 0.0 0.0 0.00 0.00 0.00 58 1018.7
20260905063232 69 0 1.0 2.0 0.00 0.00 0.00 58 1018.7
20260905063226 72 0 1.0 3.0 0.00 0.00 0.00 55 1019.1
20260905052725 69 0 0.0 0.0 0.00 0.00 0.00 58 1018.5
20260905052224 69 0 0.0 0.0 0.00 0.00 0.00 58 1018.5
20260905051725 69 0 0.0 0.0 0.00 0.00 0.00 58 1018.3
20260905051224 69 0 0.0 0.0 0.00 0.00 0.00 58 1018.3
20260905050725 69 0 0.0 0.0 0.00 0.00 0.00 58 1018.2
20260905050225 69 0 0.0 1.0 0.00 0.00 0.00 59 1018.2
20260905045724 69 0 1.0 1.0 0.00 0.00 0.00 59 1018.1
20260905045224 69 0 0.0 0.0 0.00 0.00 0.00 59 1018.1
20260905044947 69 0 0.0 0.0 0.00 0.00 0.00 59 1018.1
20260905044224 69 0 0.0 2.0 0.00 0.00 0.00 58 1018.2
20260905043724 69 0 0.0 2.0 0.00 0.00 0.00 58 1018.1
20260905043224 69 0 0.0 2.0 0.00 0.00 0.00 58 1018.0
20260905042724 69 0 0.0 2.0 0.00 0.00 0.00 58 1018.0
20260905042449 69 0 0.0 2.0 0.00 0.00 0.00 58 1018.1
20260905041723 69 0 2.0 2.0 0.00 0.00 0.00 58 1018.0
20260905041711 69 0 1.0 2.0 0.00 0.00 0.00 58 1018.0
20260905040723 70 0 0.0 2.0 0.00 0.00 0.00 58 1018.1
20260905040223 70 0 0.0 1.0 0.00 0.00 0.00 58 1018.0
20260905035723 70 0 0.0 1.0 0.00 0.00 0.00 58 1018.1
20260905035223 70 0 0.0 2.0 0.00 0.00 0.00 58 1018.1
20260905034723 70 0 1.0 2.0 0.00 0.00 0.00 58 1018.0
20260905034223 70 0 0.0 0.0 0.00 0.00 0.00 58 1018.0
20260905033721 70 0 0.0 1.0 0.00 0.00 0.00 58 1018.1
20260905033221 70 0 0.0 1.0 0.00 0.00 0.00 58 1018.2
20260905032721 71 0 0.0 2.0 0.00 0.00 0.00 57 1018.1
20260905032221 71 0 0.0 3.0 0.00 0.00 0.00 57 1018.1
20260905031720 71 0 2.0 3.0 0.00 0.00 0.00 57 1018.1
20260905031221 71 0 2.0 3.0 0.00 0.00 0.00 57 1018.2
20260905030720 71 0 1.0 3.0 0.00 0.00 0.00 57 1018.3
20260905030220 71 0 2.0 3.0 0.00 0.00 0.00 57 1018.2
20260905025720 71 0 0.0 2.0 0.00 0.00 0.00 57 1018.2
20260905025220 71 0 0.0 3.0 0.00 0.00 0.00 57 1018.1
20260905024721 71 0 2.0 3.0 0.00 0.00 0.00 57 1018.2
20260905024220 71 0 2.0 2.0 0.00 0.00 0.00 57 1018.3
20260905023720 71 0 0.0 2.0 0.00 0.00 0.00 57 1018.4
20260905023219 71 0 1.0 2.0 0.00 0.00 0.00 57 1018.3
20260905022719 71 0 0.0 0.0 0.00 0.00 0.00 57 1018.2
20260905022220 71 0 0.0 0.0 0.00 0.00 0.00 57 1018.2
20260905021719 71 0 0.0 0.0 0.00 0.00 0.00 57 1018.3
20260905021219 71 0 0.0 0.0 0.00 0.00 0.00 58 1018.3
20260905020719 71 0 0.0 1.0 0.00 0.00 0.00 57 1018.3
20260905020221 71 0 1.0 1.0 0.00 0.00 0.00 57 1018.2
20260905015939 71 0 0.0 3.0 0.00 0.00 0.00 57 1018.2
20260905015220 71 0 1.0 3.0 0.00 0.00 0.00 57 1018.3
20260905014720 72 0 2.0 2.0 0.00 0.00 0.00 56 1018.3
20260905014220 72 0 0.0 1.0 0.00 0.00 0.00 56 1018.3
20260905013948 72 0 0.0 4.0 0.00 0.00 0.00 56 1018.3
20260905013220 72 0 1.0 4.0 0.00 0.00 0.00 55 1018.4
20260905012720 73 0 0.0 2.0 0.00 0.00 0.00 55 1018.3
20260905012219 73 0 0.0 1.0 0.00 0.00 0.00 55 1018.3
20260905011719 73 0 0.0 1.0 0.00 0.00 0.00 54 1018.2
20260905011219 73 0 0.0 1.0 0.00 0.00 0.00 54 1018.3
20260905010719 74 0 0.0 1.0 0.00 0.00 0.00 53 1018.4
20260905010219 74 0 0.0 2.0 0.00 0.00 0.00 52 1018.3
20260905005719 75 0 0.0 2.0 0.00 0.00 0.00 51 1018.4
20260905005219 75 0 0.0 0.0 0.00 0.00 0.00 50 1018.4
20260905005200 76 0 0.0 1.0 0.00 0.00 0.00 50 1018.3
20260905004439 76 0 0.0 1.0 0.00 0.00 0.00 50 1018.4
20260905003718 76 0 0.0 1.0 0.00 0.00 0.00 51 1018.4
20260905003218 76 0 0.0 2.0 0.00 0.00 0.00 51 1018.4
20260905002718 76 0 0.0 2.0 0.00 0.00 0.00 50 1018.4
20260905002218 76 0 0.0 1.0 0.00 0.00 0.00 50 1018.5
20260905001718 76 0 0.0 3.0 0.00 0.00 0.00 50 1018.4
20260905001218 76 0 1.0 3.0 0.00 0.00 0.00 50 1018.5
20260905000718 76 0 1.0 2.0 0.00 0.00 0.00 51 1018.6
20260905000219 76 0 0.0 2.0 0.00 0.00 0.00 51 1018.6
20260904235718 76 0 1.0 2.0 0.00 0.00 0.00 51 1018.7
20260904235218 76 0 1.0 1.0 0.00 0.00 0.00 52 1018.7
20260904234717 76 0 0.0 0.0 0.00 0.00 0.00 52 1018.7
20260904234217 75 0 0.0 1.0 0.00 0.00 0.00 52 1018.7
20260904233717 75 0 0.0 1.0 0.00 0.00 0.00 52 1018.8
20260904233216 75 0 0.0 1.0 0.00 0.00 0.00 52 1018.8
20260904232933 75 0 0.0 1.0 0.00 0.00 0.00 53 1018.8
20260904232215 75 0 1.0 1.0 0.00 0.00 0.00 52 1018.8
20260904231715 76 0 0.0 1.0 0.00 0.00 0.00 52 1018.7
20260904231215 76 0 0.0 1.0 0.00 0.00 0.00 52 1018.7
20260904230715 76 0 0.0 1.0 0.00 0.00 0.00 52 1018.8
20260904230700 76 0 0.0 2.0 0.00 0.00 0.00 51 1018.8
20260904225716 77 0 0.0 2.0 0.00 0.00 0.00 49 1018.7
20260904225216 78 0 0.0 1.0 0.00 0.00 0.00 47 1018.8
20260904224716 78 0 0.0 2.0 0.00 0.00 0.00 47 1018.8
20260904224215 79 0 1.0 2.0 0.00 0.00 0.00 47 1018.7
20260904223944 79 0 0.0 0.0 0.00 0.00 0.00 47 1018.6
20260904223216 79 0 0.0 1.0 0.00 0.00 0.00 47 1018.5
20260904222715 79 0 0.0 1.0 0.00 0.00 0.00 47 1018.5
20260904222216 79 0 0.0 1.0 0.00 0.00 0.00 46 1018.5
20260904221715 80 0 0.0 1.0 0.00 0.00 0.00 46 1018.5
20260904221215 80 0 0.0 0.0 0.00 0.00 0.00 46 1018.5
20260904220715 80 0 0.0 1.0 0.00 0.00 0.00 45 1018.5
20260904220435 80 0 0.0 1.0 0.00 0.00 0.00 45 1018.5
20260904220427 80 0 0.0 2.0 0.00 0.00 0.00 45 1018.5
20260904215215 81 0 0.0 4.0 0.00 0.00 0.00 44 1018.6
20260904214715 81 0 2.0 4.0 0.00 0.00 0.00 45 1018.6
20260904214214 81 0 2.0 5.0 0.00 0.00 0.00 44 1018.6
20260904213715 81 0 3.0 5.0 0.00 0.00 0.00 44 1018.7
20260904213221 81 0 4.0 5.0 0.00 0.00 0.00 44 1018.7
20260904212714 81 0 4.0 5.0 0.00 0.00 0.00 44 1018.7
20260904212214 81 0 4.0 5.0 0.00 0.00 0.00 44 1018.7
20260904211714 81 0 3.0 5.0 0.00 0.00 0.00 44 1018.7
20260904211435 82 0 4.0 5.0 0.00 0.00 0.00 44 1018.8
20260904210713 82 0 3.0 5.0 0.00 0.00 0.00 44 1018.7
20260904210219 82 0 4.0 5.0 0.00 0.00 0.00 44 1018.8
20260904205713 82 0 3.0 4.0 0.00 0.00 0.00 44 1018.8
20260904205214 82 0 2.0 4.0 0.00 0.00 0.00 43 1018.8
20260904204713 82 0 3.0 5.0 0.00 0.00 0.00 43 1018.7
20260904204213 82 0 4.0 6.0 0.00 0.00 0.00 43 1018.8
20260904204151 82 0 3.0 6.0 0.00 0.00 0.00 43 1018.8
20260904203213 83 0 3.0 4.0 0.00 0.00 0.00 43 1018.9
20260904202713 83 0 3.0 4.0 0.00 0.00 0.00 42 1018.9
20260904202703 83 0 2.0 4.0 0.00 0.00 0.00 42 1018.9
20260904201713 83 0 2.0 4.0 0.00 0.00 0.00 42 1018.9
20260904201213 83 0 2.0 4.0 0.00 0.00 0.00 42 1018.9
20260904200713 83 0 3.0 4.0 0.00 0.00 0.00 42 1018.9
20260904200213 84 0 3.0 4.0 0.00 0.00 0.00 41 1018.9
20260904195713 84 0 3.0 4.0 0.00 0.00 0.00 41 1018.8
20260904195212 84 0 2.0 3.0 0.00 0.00 0.00 41 1018.8
20260904194712 84 0 2.0 3.0 0.00 0.00 0.00 40 1018.9
20260904194212 85 0 1.0 3.0 0.00 0.00 0.00 40 1018.9
20260904193712 85 0 2.0 4.0 0.00 0.00 0.00 40 1018.9
20260904193213 85 0 2.0 4.0 0.00 0.00 0.00 40 1018.9
20260904192712 85 0 2.0 4.0 0.00 0.00 0.00 40 1018.8
20260904192431 85 0 3.0 4.0 0.00 0.00 0.00 39 1018.6
20260904191711 85 45 2.0 3.0 0.00 0.00 0.00 39 1018.6
20260904191211 86 51 2.0 3.0 0.00 0.00 0.00 38 1018.6
20260904190716 86 52 2.0 3.0 0.00 0.00 0.00 38 1018.6
20260904190256 86 0 1.0 4.0 0.00 0.00 0.00 38 1018.4
20260904185711 86 62 3.0 5.0 0.00 0.00 0.00 38 1018.3
20260904185211 86 65 2.0 5.0 0.00 0.00 0.00 38 1018.2
20260904184721 86 0 4.0 5.0 0.00 0.00 0.00 37 1018.1
20260904184412 87 0 4.0 7.0 0.00 0.00 0.00 37 1018.0
20260904184400 87 63 2.0 7.0 0.00 0.00 0.00 37 1018.1
20260904183210 87 0 4.0 7.0 0.00 0.00 0.00 37 1018.0
20260904182711 87 0 5.0 7.0 0.00 0.00 0.00 36 1018.0
20260904182210 87 0 4.0 7.0 0.00 0.00 0.00 36 1017.9
20260904181710 87 66 5.0 7.0 0.00 0.00 0.00 36 1017.8
20260904181702 88 72 3.0 7.0 0.00 0.00 0.00 35 1017.8
20260904180711 88 52 3.0 6.0 0.00 0.00 0.00 35 1017.8
20260904180432 88 63 5.0 6.0 0.00 0.00 0.00 35 1017.7
20260904175938 88 37 4.0 7.0 0.00 0.00 0.00 34 1017.7
20260904175431 89 68 4.0 7.0 0.00 0.00 0.00 34 1017.6
20260904174708 89 48 5.0 7.0 0.00 0.00 0.00 33 1017.6
20260904174208 89 32 4.0 7.0 0.00 0.00 0.00 33 1017.7
20260904173708 90 66 2.0 7.0 0.00 0.00 0.00 32 1017.7
20260904173208 90 42 4.0 7.0 0.00 0.00 0.00 32 1017.7
20260904172708 90 54 4.0 9.0 0.00 0.00 0.00 31 1017.7
20260904172427 90 49 4.0 9.0 0.00 0.00 0.00 31 1017.7
20260904171707 91 55 4.0 7.0 0.00 0.00 0.00 31 1017.7
20260904171207 91 28 4.0 7.0 0.00 0.00 0.00 30 1017.6
20260904170707 91 73 3.0 7.0 0.00 0.00 0.00 30 1017.7
20260904170207 91 65 3.0 9.0 0.00 0.00 0.00 30 1017.6
20260904165707 91 48 6.0 10.0 0.00 0.00 0.00 29 1017.6
20260904165207 92 52 6.0 10.0 0.00 0.00 0.00 29 1017.7
20260904164935 92 73 6.0 11.0 0.00 0.00 0.00 28 1017.6
20260904164207 93 48 5.0 11.0 0.00 0.00 0.00 28 1017.6
20260904163706 94 80 3.0 10.0 0.00 0.00 0.00 27 1017.7
20260904163426 94 92 6.0 7.0 0.00 0.00 0.00 26 1017.7
20260904162706 95 224 5.0 7.0 0.00 0.00 0.00 25 1017.7
20260904162206 95 134 0.0 4.0 0.00 0.00 0.00 25 1017.7
20260904162150 95 135 3.0 4.0 0.00 0.00 0.00 25 1017.8
20260904161206 95 176 1.0 4.0 0.00 0.00 0.00 24 1017.8
20260904160933 96 154 2.0 4.0 0.00 0.00 0.00 23 1017.8
20260904160207 96 99 1.0 4.0 0.00 0.00 0.00 23 1017.9
20260904155928 95 99 1.0 5.0 0.00 0.00 0.00 23 1017.8
20260904155207 95 103 2.0 5.0 0.00 0.00 0.00 23 1017.9
20260904154707 95 68 3.0 5.0 0.00 0.00 0.00 24 1017.9
20260904154206 95 100 2.0 6.0 0.00 0.00 0.00 25 1018.0
20260904153707 95 135 0.0 6.0 0.00 0.00 0.00 24 1017.9
20260904153206 95 114 2.0 5.0 0.00 0.00 0.00 24 1017.9
20260904152707 95 86 1.0 5.0 0.00 0.00 0.00 25 1018.0
20260904152206 95 117 2.0 5.0 0.00 0.00 0.00 25 1018.1
20260904151705 95 148 1.0 6.0 0.00 0.00 0.00 24 1018.1
20260904151433 95 83 3.0 6.0 0.00 0.00 0.00 24 1018.2
20260904150706 96 107 1.0 5.0 0.00 0.00 0.00 23 1018.2
20260904150205 95 114 1.0 4.0 0.00 0.00 0.00 24 1018.2
20260904150146 95 102 2.0 7.0 0.00 0.00 0.00 24 1018.3
20260904145206 94 97 4.0 9.0 0.00 0.00 0.00 24 1018.3
20260904144706 95 102 6.0 9.0 0.00 0.00 0.00 23 1018.4
20260904144206 95 90 3.0 6.0 0.00 0.00 0.00 24 1018.4
20260904143705 94 121 4.0 5.0 0.00 0.00 0.00 25 1018.4
20260904143205 95 111 3.0 6.0 0.00 0.00 0.00 24 1018.4
20260904142706 95 76 4.0 6.0 0.00 0.00 0.00 24 1018.5
20260904142205 95 192 1.0 9.0 0.00 0.00 0.00 25 1018.5
20260904141706 94 109 3.0 9.0 0.00 0.00 0.00 25 1018.6
20260904141206 94 176 3.0 6.0 0.00 0.00 0.00 26 1018.5
20260904140925 93 186 5.0 7.0 0.00 0.00 0.00 25 1018.5
20260904140206 93 193 5.0 7.0 0.00 0.00 0.00 25 1018.6
20260904135930 93 175 3.0 9.0 0.00 0.00 0.00 25 1018.7
20260904135210 94 157 4.0 9.0 0.00 0.00 0.00 25 1018.7
20260904134705 94 127 5.0 9.0 0.00 0.00 0.00 24 1018.7
20260904134432 94 182 2.0 5.0 0.00 0.00 0.00 25 1018.7
20260904133705 94 130 1.0 9.0 0.00 0.00 0.00 24 1018.7
20260904133205 94 111 5.0 10.0 0.00 0.00 0.00 24 1018.8
20260904132704 94 125 3.0 10.0 0.00 0.00 0.00 25 1018.8
20260904132203 93 173 2.0 9.0 0.00 0.00 0.00 26 1018.8
20260904131704 93 72 7.0 9.0 0.00 0.00 0.00 25 1018.9
20260904131204 94 142 3.0 7.0 0.00 0.00 0.00 25 1019.0
20260904130704 94 148 3.0 7.0 0.00 0.00 0.00 25 1019.0
20260904130204 94 83 1.0 5.0 0.00 0.00 0.00 25 1019.1
20260904125704 94 123 2.0 5.0 0.00 0.00 0.00 26 1019.1
20260904125204 93 32 4.0 10.0 0.00 0.00 0.00 27 1019.4
20260904124704 93 79 3.0 10.0 0.00 0.00 0.00 26 1019.4
20260904124204 93 130 2.0 7.0 0.00 0.00 0.00 26 1019.4
20260904123703 93 113 4.0 7.0 0.00 0.00 0.00 26 1019.5